[[{"header":{"parameterUnit":"m.s-1","parameterCategory":1,"la1":30.2991,"la2":30.254,"lo1":-89.0895,"lo2":-89.0444,"dy":0.0017,"dx":0.0017,"nx":28,"ny":28,"refTime":"2024-06-12T09:00:00:Z","depth":0,"parameterNumber":2,"parameterNumberName":"U-component_of_WINDS"},"data":[0,0,0,0,0,0,0,0,0,0,0,0,0,0,0,0,0,0,0,0,0,0,0,0,0,0,0,0,0,0,0,0,0,0,0,0,0,0,0,0,0,0,0,0,0,0,0,0,0,0,0,0,0,0,0,0,0,0,-1.4792,-1.4791,0,-1.4701,-1.47,-1.4699,-1.4615,-1.4614,-1.4613,-1.4613,-1.4517,-1.4515,-1.4513,0,0,0,0,0,0,0,0,0,0,0,0,0,-1.4893,-1.4891,-1.4792,-1.4791,-1.479,-1.4701,-1.47,-1.4698,-1.4616,-1.4614,-1.4613,-1.4612,-1.4517,-1.4515,-1.4513,0,0,0,0,0,0,0,0,0,0,0,0,0,-1.483,-1.4891,-1.4792,-1.4738,-1.4732,-1.4701,-1.4699,-1.4698,-1.4616,-1.4614,-1.4613,-1.4612,-1.4518,-1.4515,-1.4513,-1.4528,0,0,-1.4506,-1.4505,0,0,0,0,0,0,0,0,-1.4833,-1.4826,-1.4747,-1.4741,-1.4735,-1.4668,-1.47,-1.4641,-1.4616,-1.466,-1.4613,-1.4611,-1.4568,-1.4561,-1.4547,-1.4523,-1.4519,-1.4505,-1.4504,-1.4503,-1.4502,0,0,0,0,0,0,0,-1.4838,-1.483,-1.4756,-1.4746,-1.4739,-1.4717,-1.4707,-1.4688,-1.4623,-1.4656,-1.465,-1.464,-1.4564,-1.455,-1.4545,-1.4518,-1.4505,-1.4503,-1.4502,-1.4501,-1.4501,-1.4503,0,0,0,0,0,0,-1.4851,-1.4834,-1.4759,-1.4753,-1.4782,-1.4717,-1.4705,-1.4691,-1.4623,-1.4612,-1.4642,-1.4637,-1.4555,-1.4548,-1.4541,-1.4554,-1.4503,-1.4501,-1.4499,-1.45,-1.4502,-1.4503,0,0,0,0,0,0,-1.4853,-1.4845,-1.4762,-1.4792,-1.478,-1.4717,-1.4702,-1.469,-1.4675,-1.4612,-1.46,-1.4639,-1.4553,-1.4544,-1.4532,-1.4549,-1.45,-1.4497,-1.4498,-1.45,-1.4502,-1.458,0,0,0,0,0,0,-1.4857,-1.4846,-1.4852,-1.4792,-1.4778,-1.4756,-1.4703,-1.4689,-1.4672,-1.4664,-1.4607,-1.4596,-1.4552,-1.4536,-1.453,-1.4545,-1.4495,-1.4496,-1.4499,-1.4502,-1.4576,-1.4585,-1.4593,0,0,0,0,0,-1.4861,-1.4877,-1.4853,-1.4844,-1.4784,-1.4757,-1.4749,-1.4698,-1.4673,-1.4678,-1.4638,-1.4598,-1.4549,-1.4535,-1.4527,-1.4543,-1.4495,-1.4498,-1.4501,-1.4572,-1.4583,-1.4593,0,0,0,0,0,0,-1.4939,-1.4868,-1.484,-1.4838,-1.4804,-1.4743,-1.4747,-1.4712,-1.4683,-1.4678,-1.4615,-1.4603,-1.4598,-1.4569,-1.4555,-1.4553,-1.4516,-1.4518,-1.4573,-1.4583,-1.4591,-1.4598,-1.4493,0,0,0,0,0,-1.4956,-1.4941,-1.4879,-1.4883,-1.4868,-1.4811,-1.4797,-1.4761,-1.4723,-1.4708,-1.4667,-1.4631,-1.4608,-1.4593,-1.4568,-1.4571,-1.4557,-1.4578,-1.4586,-1.4593,-1.4596,-1.4595,-1.4604,-1.4514,-1.4514,-1.4514,0,0,-1.4991,-1.4951,-1.4945,-1.4898,-1.4868,-1.4853,-1.4799,-1.4785,-1.4774,-1.4706,-1.4692,-1.4661,-1.4616,-1.4612,-1.4608,-1.4588,-1.4617,-1.4598,-1.4604,-1.4602,-1.46,-1.4608,-1.4616,-1.4516,-1.4516,-1.4516,0,0,-1.5048,-1.5015,-1.5015,-1.4986,-1.4941,-1.4903,-1.4904,-1.4848,-1.4824,-1.481,-1.4759,-1.4743,-1.4704,-1.4675,-1.4655,-1.4701,-1.4663,-1.4694,-1.4738,-1.4739,-1.4746,-1.4752,-1.4768,-1.4775,-1.4697,-1.4697,-1.4697,0,-1.5097,-1.5073,-1.502,-1.5009,-1.499,-1.4929,-1.4929,-1.4903,-1.4852,-1.484,-1.4818,-1.4768,-1.4733,-1.4722,-1.4733,-1.4719,-1.4717,-1.4701,-1.4749,-1.4755,-1.4759,-1.4775,-1.4781,-1.4701,-1.4701,-1.47,-1.47,0,-1.5136,-1.512,-1.5125,-1.5079,-1.506,-1.5055,-1.5,-1.4988,-1.4954,-1.4918,-1.4904,-1.4861,-1.4826,-1.482,-1.4786,-1.4804,-1.4793,-1.4761,-1.4722,-1.4773,-1.4786,-1.4792,-1.4707,-1.4706,-1.4704,-1.4703,0,0,-1.5239,-1.5163,-1.5166,-1.5145,-1.5091,-1.5077,-1.5069,-1.5036,-1.5027,-1.4993,-1.4985,-1.4953,-1.4924,-1.4901,-1.4863,-1.4864,-1.4903,-1.4832,-1.483,-1.4847,-1.492,-1.4945,-1.4952,-1.4878,-1.4879,-1.4879,-1.4924,0,-1.5286,-1.5269,-1.5221,-1.5218,-1.5203,-1.5145,-1.5138,-1.5104,-1.507,-1.5052,-1.5014,-1.4993,-1.4955,-1.4942,-1.4939,-1.4899,-1.4917,-1.4895,-1.4869,-1.4869,-1.4882,-1.4959,-1.4985,-1.5029,-1.4929,-1.4929,-1.493,0,-1.534,-1.5312,-1.5308,-1.5255,-1.5247,-1.5241,-1.5208,-1.5191,-1.5151,-1.5126,-1.5102,-1.506,-1.5048,-1.5012,-1.4994,-1.498,-1.4966,-1.4945,-1.4945,-1.4941,-1.4903,-1.4957,-1.5042,-1.5049,-1.4938,-1.4937,-1.4936,0,-1.5416,-1.5377,-1.537,-1.5353,-1.5291,-1.5289,-1.5263,-1.5221,-1.5205,-1.5175,-1.5163,-1.5132,-1.5115,-1.5091,-1.5042,-1.5021,-1.503,-1.499,-1.5009,-1.501,-1.5013,-1.5014,-1.5097,-1.5004,-1.5004,-1.5004,-1.5004,0,-1.5475,-1.5475,-1.5403,-1.5399,-1.5397,-1.5342,-1.5341,-1.5309,-1.5273,-1.5261,-1.5208,-1.5198,-1.5134,-1.5116,-1.5077,-1.5068,-1.506,-1.504,-1.503,-1.5045,-1.5048,-1.5035,-1.5031,-1.5006,-1.5005,-1.5005,-1.5005,0,-1.556,-1.5512,-1.55,-1.5443,-1.5429,-1.543,-1.5381,-1.5374,-1.5337,-1.5323,-1.5316,-1.5258,-1.5235,-1.5183,-1.5145,-1.5119,-1.512,-1.5101,-1.5134,-1.5127,-1.5149,-1.5148,-1.5228,-1.5235,-1.5138,-1.5139,-1.514,0,-1.5601,-1.5599,-1.5543,-1.5531,-1.5508,-1.549,-1.5473,-1.5418,-1.5403,-1.5358,-1.5356,-1.5328,-1.5303,-1.5268,-1.5222,-1.5193,-1.5173,-1.5203,-1.5168,-1.5184,-1.5174,-1.5175,-1.5175,-1.5211,-1.5212,-1.5213,-1.5214,0,-1.5678,-1.5655,-1.5633,-1.5604,-1.5585,-1.5559,-1.5529,-1.5523,-1.5461,-1.5446,-1.5421,-1.5402,-1.5364,-1.5337,-1.5301,-1.5273,-1.5233,-1.5226,-1.5229,-1.5244,-1.5263,-1.5254,-1.5155,-1.5224,-1.5223,-1.5222,-1.5222,-1.5222,-1.5743,-1.5739,-1.5699,-1.5677,-1.5649,-1.5623,-1.5614,-1.5577,-1.5556,-1.5521,-1.5489,-1.5468,-1.5428,-1.5375,-1.535,-1.5332,-1.5313,-1.5317,-1.5318,-1.532,-1.5326,-1.5266,-1.5325,-1.5325,-1.5325,-1.5324,-1.5324,0,-1.5818,-1.579,-1.577,-1.5731,-1.5713,-1.5678,-1.5644,-1.5631,-1.5614,-1.558,-1.5557,-1.5529,-1.5502,-1.5455,-1.5424,-1.5419,-1.54,-1.5413,-1.5413,-1.5407,-1.5346,-1.5346,-1.5429,-1.5429,-1.5429,-1.5429,-1.5429,-1.5429,-1.5855,-1.5848,-1.582,-1.5798,-1.5769,-1.5748,-1.5732,-1.5707,-1.568,-1.5652,-1.563,-1.56,-1.556,-1.5526,-1.55,-1.5487,-1.5478,-1.5497,-1.5478,-1.5421,-1.5412,-1.5402,-1.5403,-1.5496,-1.5496,-1.5541,-1.5541,-1.5542]},{"header":{"parameterUnit":"m.s-1","parameterCategory":1,"la1":30.2991,"la2":30.254,"lo1":-89.0895,"lo2":-89.0444,"dy":0.0017,"dx":0.0017,"nx":28,"ny":28,"refTime":"2024-06-12T09:00:00:Z","depth":0,"parameterNumber":3,"parameterNumberName":"V-component_of_WINDS"},"data":[0,0,0,0,0,0,0,0,0,0,0,0,0,0,0,0,0,0,0,0,0,0,0,0,0,0,0,0,0,0,0,0,0,0,0,0,0,0,0,0,0,0,0,0,0,0,0,0,0,0,0,0,0,0,0,0,0,0,-3.0356,-3.0356,0,-3.0397,-3.0397,-3.0397,-3.0373,-3.0372,-3.037,-3.0369,-3.0406,-3.0408,-3.041,0,0,0,0,0,0,0,0,0,0,0,0,0,-3.0254,-3.0256,-3.0356,-3.0356,-3.0357,-3.0396,-3.0397,-3.0398,-3.0373,-3.0372,-3.037,-3.0369,-3.0406,-3.0408,-3.0411,0,0,0,0,0,0,0,0,0,0,0,0,0,-3.0297,-3.0256,-3.0356,-3.0349,-3.0349,-3.0396,-3.0397,-3.0398,-3.0373,-3.0372,-3.037,-3.0368,-3.0405,-3.0408,-3.0411,-3.0465,0,0,-3.042,-3.0422,0,0,0,0,0,0,0,0,-3.0294,-3.03,-3.035,-3.035,-3.035,-3.0378,-3.0375,-3.042,-3.0374,-3.0364,-3.0369,-3.0367,-3.0398,-3.0402,-3.0413,-3.0467,-3.0468,-3.0421,-3.0423,-3.0424,-3.0425,0,0,0,0,0,0,0,-3.0291,-3.0298,-3.0372,-3.0351,-3.0351,-3.0344,-3.0348,-3.0383,-3.039,-3.0365,-3.0363,-3.0368,-3.0398,-3.041,-3.0413,-3.0469,-3.0421,-3.0423,-3.0425,-3.0426,-3.0571,-3.0573,0,0,0,0,0,0,-3.0289,-3.0296,-3.037,-3.0373,-3.0317,-3.0347,-3.0352,-3.0371,-3.039,-3.0391,-3.037,-3.0367,-3.0405,-3.041,-3.0415,-3.048,-3.0424,-3.0427,-3.0429,-3.0569,-3.0571,-3.0573,0,0,0,0,0,0,-3.0287,-3.0296,-3.0369,-3.0334,-3.0343,-3.0351,-3.0372,-3.0372,-3.0385,-3.0394,-3.0394,-3.0381,-3.0404,-3.041,-3.0453,-3.0481,-3.0428,-3.0431,-3.0567,-3.057,-3.0572,-3.0612,0,0,0,0,0,0,-3.0284,-3.0296,-3.0317,-3.0335,-3.0345,-3.0408,-3.0374,-3.0374,-3.0391,-3.0387,-3.0405,-3.0406,-3.0403,-3.0449,-3.0457,-3.0485,-3.0433,-3.0564,-3.0568,-3.0571,-3.0608,-3.0616,-3.0622,0,0,0,0,0,-3.0281,-3.0324,-3.0318,-3.0327,-3.0372,-3.0409,-3.0415,-3.0413,-3.0393,-3.0414,-3.042,-3.0405,-3.0477,-3.0454,-3.0462,-3.0491,-3.0562,-3.0567,-3.0571,-3.0605,-3.0614,-3.0622,0,0,0,0,0,0,-3.0307,-3.0327,-3.0319,-3.0371,-3.0389,-3.0405,-3.0431,-3.0422,-3.0445,-3.0441,-3.0436,-3.044,-3.0485,-3.0492,-3.0466,-3.0546,-3.0517,-3.0523,-3.0539,-3.0548,-3.0555,-3.0552,-3.0436,0,0,0,0,0,-3.0319,-3.0349,-3.0364,-3.0408,-3.0418,-3.0424,-3.044,-3.0437,-3.0455,-3.0462,-3.0471,-3.0488,-3.0514,-3.0532,-3.0556,-3.0609,-3.0613,-3.0634,-3.0641,-3.0647,-3.0652,-3.0682,-3.0692,-3.0588,-3.0588,-3.0588,0,0,-3.0343,-3.0358,-3.0377,-3.0414,-3.0428,-3.0459,-3.043,-3.0463,-3.0486,-3.0466,-3.0508,-3.0516,-3.0534,-3.0583,-3.0605,-3.059,-3.0682,-3.0652,-3.0657,-3.0659,-3.0688,-3.0697,-3.0706,-3.0591,-3.0591,-3.059,0,0,-3.0404,-3.0418,-3.0457,-3.0472,-3.0494,-3.0498,-3.0508,-3.0526,-3.0531,-3.0574,-3.0561,-3.0587,-3.0632,-3.0647,-3.066,-3.0729,-3.0717,-3.0737,-3.0774,-3.0804,-3.0812,-3.0819,-3.0845,-3.0854,-3.0743,-3.0743,-3.0743,0,-3.0431,-3.0478,-3.0477,-3.0513,-3.053,-3.0516,-3.0556,-3.057,-3.0598,-3.061,-3.0594,-3.0652,-3.0664,-3.0716,-3.0734,-3.0745,-3.0755,-3.0735,-3.0811,-3.0818,-3.0825,-3.0849,-3.0859,-3.0745,-3.0745,-3.0745,-3.0745,0,-3.0511,-3.0544,-3.0573,-3.0604,-3.0624,-3.066,-3.0665,-3.0685,-3.0681,-3.0687,-3.0731,-3.0745,-3.0773,-3.0785,-3.078,-3.0838,-3.0828,-3.0812,-3.0782,-3.0837,-3.086,-3.0869,-3.0749,-3.0748,-3.0747,-3.0747,0,0,-3.0587,-3.0619,-3.063,-3.0645,-3.0669,-3.0694,-3.0731,-3.0761,-3.0779,-3.08,-3.083,-3.0871,-3.0857,-3.0872,-3.0869,-3.0894,-3.095,-3.0875,-3.0875,-3.0889,-3.1015,-3.1027,-3.1038,-3.0942,-3.0944,-3.0945,-3.1014,0,-3.0649,-3.0716,-3.0718,-3.0778,-3.0809,-3.0798,-3.083,-3.0848,-3.0855,-3.0882,-3.0888,-3.0917,-3.0896,-3.0905,-3.093,-3.0938,-3.0975,-3.0933,-3.097,-3.0971,-3.0966,-3.105,-3.1062,-3.1126,-3.1022,-3.1024,-3.1025,0,-3.0731,-3.0757,-3.0822,-3.0845,-3.0858,-3.0887,-3.0915,-3.0941,-3.0962,-3.0965,-3.0984,-3.0977,-3.1015,-3.0985,-3.1036,-3.1008,-3.1023,-3.1029,-3.1032,-3.1035,-3.1001,-3.1055,-3.1147,-3.1156,-3.1039,-3.1038,-3.1037,0,-3.0781,-3.0832,-3.0878,-3.0891,-3.0918,-3.0939,-3.0951,-3.0971,-3.0989,-3.1014,-3.1026,-3.1054,-3.1069,-3.109,-3.1092,-3.107,-3.1144,-3.1114,-3.1147,-3.1147,-3.1163,-3.1162,-3.1258,-3.1173,-3.1173,-3.1172,-3.1172,0,-3.0851,-3.089,-3.0901,-3.0929,-3.0974,-3.0976,-3.1019,-3.1029,-3.1048,-3.1077,-3.1068,-3.1095,-3.1096,-3.1124,-3.1125,-3.1168,-3.1174,-3.1178,-3.1177,-3.1179,-3.1178,-3.1188,-3.1184,-3.1175,-3.1174,-3.1174,-3.1173,0,-3.0913,-3.0922,-3.0972,-3.0995,-3.1002,-3.1034,-3.1053,-3.108,-3.1087,-3.1124,-3.1133,-3.1143,-3.1176,-3.118,-3.1217,-3.1218,-3.127,-3.1265,-3.1264,-3.1263,-3.1296,-3.1293,-3.1402,-3.1417,-3.1322,-3.1323,-3.1323,0,-3.0957,-3.0988,-3.1016,-3.1037,-3.1051,-3.1083,-3.1103,-3.1106,-3.1127,-3.1155,-3.1178,-3.1211,-3.1237,-3.1289,-3.1299,-3.1328,-3.1324,-3.136,-3.1328,-3.1329,-3.1325,-3.1323,-3.1327,-3.1366,-3.1367,-3.1368,-3.1369,0,-3.1035,-3.1038,-3.1068,-3.1101,-3.1126,-3.1151,-3.1174,-3.1191,-3.1197,-3.1221,-3.1256,-3.1277,-3.1317,-3.1349,-3.1378,-3.1389,-3.138,-3.1379,-3.1388,-3.139,-3.1388,-3.139,-3.1281,-3.1376,-3.1375,-3.1375,-3.1375,-3.1374,-3.109,-3.1118,-3.1143,-3.1177,-3.1196,-3.1219,-3.1246,-3.1258,-3.1287,-3.1322,-3.1321,-3.136,-3.1381,-3.142,-3.1433,-3.1463,-3.1451,-3.1464,-3.1467,-3.1471,-3.1474,-3.1384,-3.1468,-3.1468,-3.1468,-3.1467,-3.1467,0,-3.1167,-3.1183,-3.1215,-3.125,-3.1278,-3.127,-3.1296,-3.1319,-3.1353,-3.1375,-3.1402,-3.1443,-3.1475,-3.1489,-3.152,-3.1541,-3.1538,-3.1549,-3.1547,-3.155,-3.1483,-3.1472,-3.1551,-3.1551,-3.1551,-3.1551,-3.1551,-3.1551,-3.1211,-3.1258,-3.1265,-3.1322,-3.1338,-3.1377,-3.1393,-3.1414,-3.1432,-3.1479,-3.1506,-3.1516,-3.1535,-3.1568,-3.1597,-3.16,-3.1612,-3.1625,-3.1627,-3.1563,-3.1555,-3.1547,-3.1537,-3.1628,-3.1628,-3.1691,-3.1692,-3.1692]}]]